Location: G�ndlingen
(48.0142°N, 7.6396°E)
Time: 18:04:10
(UTC+00:00)

MTI - Pass Details

Date: 05 July 2020
Orbit: 393 x 404 km, 97.5° (Epoch: 13 August)

Event Time Altitude Azimuth Distance (km) Brightness Sun altitude
Rises 21:46:13 0° 12° (NNE) 2,317 8.4 -15.3°
Reaches altitude 10° 21:48:13 10° 12° (NNE) 1,452 7.3 -15.4°
Maximum altitude 21:51:19 85° 283° (WNW) 403 3.6 -15.6°
Enters shadow 21:52:34 33° 197° (SSW) 695 4.4 -15.7°
